TimeEDT,TemperatureF,Dew PointF,Humidity,Sea Level PressureIn,VisibilityMPH,Wind Direction,Wind SpeedMPH,Gust SpeedMPH,PrecipitationIn,Events,Conditions,WindDirDegrees,DateUTC
12:15 AM,39.2,33.8,81,29.51,10.0,NE,8.1,17.3,N/A,,Overcast,40,2013-03-26 04:15:00
12:35 AM,37.4,32.0,81,29.52,2.5,NNE,16.1,26.5,N/A,,Overcast,30,2013-03-26 04:35:00
12:55 AM,37.4,33.8,87,29.52,10.0,NE,11.5,28.8,N/A,,Light Drizzle,50,2013-03-26 04:55:00
1:15 AM,37.4,33.8,87,29.52,10.0,NNE,6.9,-,N/A,,Overcast,20,2013-03-26 05:15:00
1:35 AM,39.2,32.0,75,29.52,10.0,North,12.7,24.2,N/A,,Overcast,10,2013-03-26 05:35:00
1:55 AM,39.2,32.0,75,29.52,10.0,North,11.5,21.9,N/A,,Overcast,10,2013-03-26 05:55:00
2:15 AM,39.2,32.0,75,29.52,10.0,North,13.8,21.9,N/A,,Overcast,360,2013-03-26 06:15:00
2:35 AM,39.2,32.0,75,29.52,10.0,North,12.7,19.6,N/A,,Overcast,360,2013-03-26 06:35:00
2:55 AM,39.2,32.0,75,29.53,5.0,North,12.7,24.2,N/A,,Overcast,360,2013-03-26 06:55:00
3:15 AM,35.6,33.8,93,29.54,4.0,North,16.1,25.3,0.01,,Overcast,360,2013-03-26 07:15:00
3:35 AM,35.6,33.8,93,29.55,6.0,North,12.7,29.9,0.01,,Overcast,10,2013-03-26 07:35:00
3:55 AM,35.6,33.8,93,29.55,10.0,North,9.2,17.3,0.01,,Mostly Cloudy,360,2013-03-26 07:55:00
4:15 AM,37.4,33.8,87,29.55,10.0,North,12.7,16.1,N/A,Rain,Light Rain,360,2013-03-26 08:15:00
4:35 AM,35.6,33.8,93,29.55,10.0,North,5.8,-,0.01,,Overcast,360,2013-03-26 08:35:00
4:55 AM,37.4,33.8,87,29.55,10.0,North,10.4,16.1,0.01,,Overcast,360,2013-03-26 08:55:00
5:15 AM,37.4,32.0,81,29.56,10.0,NNW,8.1,16.1,N/A,,Overcast,330,2013-03-26 09:15:00
5:35 AM,37.4,30.2,75,29.57,10.0,NNW,12.7,20.7,N/A,,Mostly Cloudy,340,2013-03-26 09:35:00
5:55 AM,37.4,32.0,81,29.58,10.0,NW,6.9,-,N/A,,Mostly Cloudy,310,2013-03-26 09:55:00
6:15 AM,37.4,32.0,81,29.59,10.0,NW,5.8,-,N/A,,Overcast,310,2013-03-26 10:15:00
6:35 AM,37.4,30.2,75,29.60,10.0,NW,9.2,21.9,N/A,,Overcast,310,2013-03-26 10:35:00
6:55 AM,35.6,30.2,81,29.61,10.0,NW,5.8,-,N/A,,Mostly Cloudy,310,2013-03-26 10:55:00
7:15 AM,35.6,30.2,81,29.62,10.0,WNW,9.2,16.1,N/A,,Mostly Cloudy,300,2013-03-26 11:15:00
7:35 AM,35.6,30.2,81,29.63,10.0,NW,8.1,-,N/A,,Scattered Clouds,320,2013-03-26 11:35:00
7:55 AM,35.6,30.2,81,29.64,10.0,WNW,8.1,18.4,N/A,,Partly Cloudy,300,2013-03-26 11:55:00
8:15 AM,37.4,28.4,70,29.64,10.0,NW,10.4,16.1,N/A,,Partly Cloudy,310,2013-03-26 12:15:00
8:35 AM,39.2,28.4,65,29.65,10.0,NNW,9.2,18.4,N/A,,Clear,330,2013-03-26 12:35:00
8:55 AM,39.2,28.4,65,29.65,10.0,NW,9.2,-,N/A,,Clear,320,2013-03-26 12:55:00
9:15 AM,39.2,26.6,61,29.66,10.0,NW,13.8,18.4,N/A,,Clear,310,2013-03-26 13:15:00
9:35 AM,39.2,26.6,61,29.67,10.0,NW,13.8,24.2,N/A,,Clear,310,2013-03-26 13:35:00
9:55 AM,39.2,26.6,61,29.67,10.0,NNW,10.4,21.9,N/A,,Clear,330,2013-03-26 13:55:00
10:15 AM,41.0,26.6,57,29.68,10.0,NNW,11.5,24.2,N/A,,Clear,330,2013-03-26 14:15:00
10:35 AM,41.0,26.6,57,29.69,10.0,NNW,11.5,17.3,N/A,,Clear,330,2013-03-26 14:35:00
10:55 AM,41.0,26.6,57,29.69,10.0,NW,10.4,17.3,N/A,,Clear,320,2013-03-26 14:55:00
11:15 AM,42.8,24.8,49,29.70,10.0,NW,9.2,18.4,N/A,,Clear,310,2013-03-26 15:15:00
11:35 AM,42.8,26.6,53,29.70,10.0,NNW,10.4,17.3,N/A,,Clear,340,2013-03-26 15:35:00
11:55 AM,42.8,24.8,49,29.70,10.0,NNW,9.2,-,N/A,,Clear,340,2013-03-26 15:55:00
12:15 PM,42.8,24.8,49,29.70,10.0,NW,8.1,-,N/A,,Clear,320,2013-03-26 16:15:00
12:35 PM,42.8,24.8,49,29.70,10.0,NNW,5.8,-,N/A,,Clear,330,2013-03-26 16:35:00
12:55 PM,44.6,23.0,43,29.69,10.0,NNW,6.9,-,N/A,,Clear,330,2013-03-26 16:55:00
1:15 PM,44.6,24.8,46,29.69,10.0,North,6.9,-,N/A,,Clear,360,2013-03-26 17:15:00
1:35 PM,44.6,24.8,46,29.69,10.0,NNE,8.1,-,N/A,,Clear,20,2013-03-26 17:35:00
1:55 PM,44.6,24.8,46,29.69,10.0,NNE,9.2,-,N/A,,Clear,30,2013-03-26 17:55:00
2:15 PM,44.6,24.8,46,29.69,10.0,North,5.8,-,N/A,,Clear,360,2013-03-26 18:15:00
2:35 PM,44.6,24.8,46,29.68,10.0,NE,5.8,-,N/A,,Clear,40,2013-03-26 18:35:00
2:55 PM,46.4,24.8,43,29.68,10.0,North,5.8,-,N/A,,Clear,10,2013-03-26 18:55:00
3:15 PM,44.6,26.6,49,29.68,10.0,North,4.6,-,N/A,,Clear,10,2013-03-26 19:15:00
3:35 PM,46.4,26.6,46,29.68,10.0,NNE,6.9,-,N/A,,Clear,20,2013-03-26 19:35:00
3:55 PM,44.6,26.6,49,29.69,10.0,NNE,6.9,-,N/A,,Partly Cloudy,20,2013-03-26 19:55:00
4:15 PM,46.4,26.6,46,29.69,10.0,NE,6.9,-,N/A,,Scattered Clouds,50,2013-03-26 20:15:00
4:35 PM,44.6,26.6,49,29.69,10.0,NE,5.8,-,N/A,,Mostly Cloudy,50,2013-03-26 20:35:00
4:55 PM,44.6,26.6,49,29.70,10.0,Calm,Calm,-,N/A,,Mostly Cloudy,0,2013-03-26 20:55:00
5:15 PM,46.4,26.6,46,29.70,10.0,Calm,Calm,-,N/A,,Scattered Clouds,0,2013-03-26 21:15:00
5:35 PM,46.4,28.4,50,29.71,10.0,ESE,3.5,-,N/A,,Clear,110,2013-03-26 21:35:00
5:55 PM,44.6,28.4,53,29.71,10.0,ESE,4.6,-,N/A,,Clear,110,2013-03-26 21:55:00
6:15 PM,44.6,30.2,57,29.71,10.0,SSE,3.5,-,N/A,,Clear,150,2013-03-26 22:15:00
6:35 PM,42.8,30.2,61,29.72,10.0,SSE,4.6,-,N/A,,Clear,160,2013-03-26 22:35:00
6:55 PM,42.8,30.2,61,29.73,10.0,South,4.6,-,N/A,,Partly Cloudy,170,2013-03-26 22:55:00
7:15 PM,39.2,30.2,70,29.73,10.0,South,3.5,-,N/A,,Partly Cloudy,170,2013-03-26 23:15:00
7:35 PM,39.2,30.2,70,29.74,10.0,Calm,Calm,-,N/A,,Mostly Cloudy,0,2013-03-26 23:35:00
7:55 PM,41.0,30.2,65,29.74,10.0,SSW,3.5,-,N/A,,Overcast,200,2013-03-26 23:55:00
8:15 PM,41.0,30.2,65,29.75,10.0,SW,3.5,-,N/A,,Overcast,220,2013-03-27 00:15:00
8:35 PM,42.8,28.4,57,29.75,10.0,WSW,4.6,-,N/A,,Overcast,250,2013-03-27 00:35:00
8:55 PM,42.8,26.6,53,29.76,10.0,WSW,3.5,-,N/A,,Mostly Cloudy,250,2013-03-27 00:55:00
9:15 PM,42.8,26.6,53,29.76,10.0,WSW,3.5,-,N/A,,Clear,240,2013-03-27 01:15:00
9:35 PM,41.0,26.6,57,29.76,10.0,West,3.5,-,N/A,,Clear,260,2013-03-27 01:35:00
9:55 PM,41.0,24.8,53,29.77,10.0,WSW,4.6,-,N/A,,Clear,250,2013-03-27 01:55:00
10:15 PM,41.0,24.8,53,29.77,10.0,West,5.8,-,N/A,,Clear,260,2013-03-27 02:15:00
10:35 PM,39.2,24.8,56,29.77,10.0,West,5.8,-,N/A,,Clear,260,2013-03-27 02:35:00
10:55 PM,39.2,23.0,52,29.77,10.0,West,6.9,-,N/A,,Clear,260,2013-03-27 02:55:00
11:15 PM,39.2,23.0,52,29.77,10.0,West,5.8,-,N/A,,Clear,270,2013-03-27 03:15:00
11:35 PM,37.4,24.8,60,29.78,10.0,West,4.6,-,N/A,,Clear,260,2013-03-27 03:35:00
11:55 PM,37.4,23.0,56,29.78,10.0,West,4.6,-,N/A,,Clear,260,2013-03-27 03:55:00